Theta_e
313 315 312 316 321 314 317 319 321 322 323 327 329 339 342 343 344 349 343 351 354 348 349 348 347 347 344 342 339 338 335 335 332 324 319 322 324 324 324 323 321 324 327 330 331 328 327 329 332
310 314 318 320 318 320 318 319 321 322 325 326 328 330 343 348 345 341 349 353 355 344 348 347 347 347 343 340 338 337 336 335 334 329 321 321 322 321 321 323 323 325 327 328 328 326 326 323 322
309 319 325 315 313 316 318 321 321 323 325 325 324 327 350 349 344 340 344 354 354 343 347 346 347 345 342 338 337 336 337 336 335 333 326 320 321 321 323 325 326 326 326 324 327 328 324 321 321
314 321 327 321 315 313 317 317 318 317 320 321 321 324 347 346 342 344 350 353 347 341 346 347 347 343 341 337 335 335 336 336 336 335 330 321 321 322 324 327 331 329 327 329 330 323 323 323 322
322 322 323 317 317 314 315 316 316 316 318 319 320 323 347 350 347 346 352 351 339 342 346 347 347 343 340 337 335 333 334 335 336 334 331 323 321 322 323 324 325 326 329 330 325 323 323 324 324
321 318 316 321 321 318 316 319 317 316 318 319 319 325 350 352 349 351 352 351 340 338 344 345 346 343 339 338 335 332 331 332 333 331 329 325 322 321 323 324 324 323 323 324 324 323 322 322 322
317 315 316 317 318 318 318 320 317 318 317 319 322 320 348 353 353 353 354 353 342 341 344 344 345 341 338 338 336 333 331 332 330 329 327 325 323 321 321 323 323 323 323 323 322 322 322 322 322
316 313 319 319 321 319 320 319 320 320 319 320 322 319 346 353 354 357 355 354 344 344 345 345 345 341 338 338 337 334 331 329 327 326 325 324 323 322 320 322 322 322 322 322 322 322 322 322 320
315 311 313 316 318 318 319 316 319 317 318 318 319 320 332 353 356 358 357 357 348 346 347 346 345 341 338 338 337 335 332 328 326 323 323 322 322 321 320 321 322 322 321 322 322 322 321 321 322
310 307 311 313 314 314 315 314 314 315 315 317 317 320 331 345 359 357 359 358 353 347 348 347 345 342 338 337 337 336 333 329 326 322 321 320 320 320 320 321 322 322 322 322 322 323 322 326 329
309 308 311 313 314 315 314 315 314 314 314 315 316 316 317 329 343 357 358 355 357 354 345 347 345 343 338 338 338 337 335 330 327 323 320 319 319 320 320 321 323 324 322 322 323 333 333 335 336
312 312 311 312 313 312 312 313 313 314 314 315 316 316 316 318 325 330 358 357 358 358 354 346 347 344 339 338 338 338 336 333 328 325 320 319 319 320 324 335 338 335 323 331 333 336 337 337 338
311 311 313 314 314 313 313 312 312 312 314 315 315 316 316 316 318 321 331 358 355 358 358 355 344 344 341 338 338 338 338 336 330 327 322 322 325 327 333 341 342 340 336 338 340 339 340 341 340
313 313 313 314 313 313 312 312 313 314 313 314 314 315 316 316 316 317 320 349 358 357 357 355 346 343 342 339 338 339 338 338 334 329 324 325 330 335 336 340 341 340 338 339 341 340 344 341 344
314 312 312 313 312 311 313 312 312 314 314 313 313 313 314 315 316 317 318 320 355 357 357 353 346 344 343 341 338 339 338 339 336 332 326 327 330 337 341 340 341 341 340 339 340 345 346 343 345
312 312 311 312 312 313 313 311 313 314 314 313 313 313 313 313 315 316 317 317 342 355 354 352 347 343 343 343 341 341 338 339 337 334 328 330 334 338 342 340 340 339 340 337 337 340 342 344 344
310 311 312 312 312 311 311 312 313 314 314 313 313 313 313 313 314 316 317 317 338 352 353 350 348 344 343 343 346 346 342 340 339 340 336 332 335 336 339 335 335 335 337 338 338 339 346 346 346
314 313 316 318 316 316 316 311 312 314 314 314 314 314 314 314 314 315 316 317 323 340 352 351 343 338 338 345 345 345 345 342 342 343 342 340 334 337 340 337 337 338 339 339 339 341 344 344 345
315 316 318 318 317 317 316 314 312 312 314 313 314 314 315 316 315 315 315 317 323 341 349 347 339 335 343 345 346 346 346 346 343 346 346 346 341 338 337 338 340 343 341 338 339 341 344 342 338
315 318 318 317 316 316 315 313 313 312 312 314 314 314 315 316 315 315 315 317 325 337 346 339 341 339 338 346 348 348 348 347 343 346 346 347 341 339 337 338 341 343 340 339 339 337 337 335 332
316 317 317 317 316 315 314 315 313 313 313 315 315 315 315 316 315 315 315 316 319 336 342 346 347 338 334 342 350 348 348 347 347 347 347 346 343 339 341 339 339 338 340 341 340 336 331 330 327
315 315 316 318 316 316 315 318 315 314 314 314 315 315 316 316 317 315 315 316 316 328 336 344 346 344 336 348 347 345 348 347 348 348 348 346 344 341 342 340 338 339 342 340 332 330 328 330 330
315 315 315 315 317 315 315 316 316 314 314 314 313 315 315 315 316 316 315 315 317 319 333 338 346 343 343 344 344 337 347 348 347 347 347 346 346 346 345 338 342 343 338 330 330 328 329 330 325
316 316 314 314 314 318 316 315 315 312 313 313 313 315 316 316 316 316 316 315 316 318 323 335 341 346 347 344 333 333 348 347 339 346 346 348 348 344 343 343 342 337 332 329 329 329 329 323 317
318 319 319 315 313 318 315 316 315 314 314 314 314 314 315 315 316 315 316 315 315 317 322 330 336 345 348 348 346 346 347 344 342 344 343 345 345 342 344 342 334 331 329 329 330 328 322 316 314
318 319 321 321 317 315 316 317 316 315 314 315 316 316 316 316 315 315 315 315 315 316 322 326 333 341 345 347 343 344 344 339 338 338 341 342 340 344 342 333 332 328 327 330 326 320 316 313 313
317 316 317 318 319 322 317 316 315 314 315 315 315 316 317 315 316 315 316 315 315 315 323 327 328 341 339 342 345 345 344 337 334 341 336 339 342 340 334 332 328 328 330 324 317 315 313 313 313
313 315 317 319 320 319 317 318 317 317 317 317 316 316 318 318 315 315 315 315 315 316 324 327 326 338 336 338 339 346 340 338 340 339 338 333 339 335 333 328 330 329 324 317 315 313 313 313 314
312 316 316 317 318 318 316 314 316 316 317 316 317 318 319 319 315 316 316 319 316 317 331 329 329 335 339 337 347 345 342 335 337 341 338 340 336 332 329 330 329 324 317 315 313 313 314 314 313
312 312 315 317 315 320 321 319 316 317 318 318 318 318 319 320 317 315 316 320 319 329 335 336 338 339 336 339 346 340 339 341 344 343 340 336 332 330 329 326 321 316 315 314 314 314 314 314 313
Wind_Speed
7 4 4 3 2 4 4 8 4 10 7 7 7 2 13 21 9 5 15 27 27 38 38 34 30 27 25 22 20 18 17 18 17 17 18 20 20 20 20 19 20 19 18 16 14 11 10 10 8
5 6 4 2 4 3 6 5 11 12 25 17 21 14 8 3 11 18 22 33 24 41 39 35 32 28 26 23 20 18 17 18 17 16 17 18 19 19 19 18 18 17 15 13 11 10 9 8 8
6 8 4 4 4 6 6 6 10 17 25 12 18 17 5 8 19 35 23 32 29 38 38 36 32 29 27 24 21 20 18 18 16 16 17 18 18 19 18 17 16 14 13 12 10 8 7 7 6
6 5 3 2 9 7 6 7 7 15 37 12 20 9 8 20 29 27 33 34 34 39 37 36 33 30 28 24 21 19 18 17 17 16 16 17 17 18 17 16 15 14 12 10 8 7 6 5 4
6 3 1 4 7 6 7 16 21 15 21 15 24 7 1 18 16 29 33 33 32 39 38 35 33 30 28 25 22 20 19 17 16 15 15 16 16 16 15 14 13 12 10 8 7 5 4 3 2
2 1 1 7 9 5 6 25 13 9 27 23 15 4 8 17 26 34 32 32 32 39 39 35 32 31 29 26 23 21 20 19 17 16 15 15 16 16 15 13 11 10 8 6 5 4 3 2 1
4 3 5 4 4 5 5 12 4 12 11 12 25 5 13 27 31 33 31 29 35 38 40 37 35 32 29 27 24 22 21 19 18 16 16 15 15 15 14 12 10 8 6 5 3 2 0 0 1
4 3 3 3 2 7 7 13 16 13 18 23 18 7 6 35 34 33 30 26 34 39 38 38 36 34 33 29 25 23 21 19 18 17 16 15 15 15 15 12 10 7 5 4 2 1 1 1 2
13 2 2 4 3 6 22 10 21 24 18 23 21 24 17 36 39 35 32 29 33 39 38 37 37 36 34 32 28 24 21 20 18 17 16 16 16 15 13 12 9 7 4 3 1 1 1 2 5
4 3 6 6 6 7 17 13 25 20 21 13 29 23 15 11 43 42 38 36 34 40 41 39 38 36 36 35 32 28 24 22 20 18 17 16 15 15 13 11 8 6 4 3 2 2 3 4 5
5 6 10 15 25 27 23 25 27 8 10 14 20 27 26 9 9 44 39 34 35 34 39 41 38 37 37 37 34 31 27 23 20 18 17 17 17 16 14 11 8 6 4 2 3 3 4 3 1
3 6 9 15 22 22 12 23 19 11 19 20 22 25 24 20 12 21 42 39 36 37 37 40 41 39 38 36 33 29 26 24 21 20 18 19 17 16 13 11 8 5 6 5 4 2 1 2 6
4 4 17 19 22 19 18 9 13 17 19 23 24 25 25 24 24 19 18 41 37 41 36 38 43 41 38 35 32 29 26 22 20 19 20 20 17 17 15 11 7 5 6 4 3 2 1 4 5
14 20 22 23 25 21 8 12 20 35 22 25 26 27 25 30 28 23 17 26 41 40 40 36 43 42 38 36 33 29 26 23 21 20 20 20 17 15 13 10 7 7 6 1 2 5 7 8 5
23 11 12 15 13 9 18 9 10 32 38 22 26 34 30 32 31 29 22 25 36 39 44 42 44 39 37 34 31 28 25 23 22 20 21 18 17 14 12 11 10 7 5 5 4 4 4 5 8
6 5 5 4 6 14 7 11 18 32 33 36 28 36 32 33 35 34 28 20 23 39 41 40 36 39 35 32 28 26 27 25 22 21 21 18 16 14 14 14 16 14 12 9 8 8 10 13 14
4 5 11 9 4 9 5 16 15 25 26 32 29 32 37 35 37 36 30 23 6 32 37 41 36 30 25 27 26 21 25 24 23 19 19 19 16 16 13 11 15 12 13 12 12 12 12 13 17
6 7 8 12 15 14 18 16 12 21 14 23 21 23 29 37 37 36 32 24 9 15 36 42 40 33 26 32 28 23 23 20 24 19 15 15 16 15 15 14 13 12 10 10 12 13 14 16 18
9 13 14 16 16 10 15 17 15 13 14 18 28 24 30 32 38 35 35 24 11 18 33 42 34 39 49 38 30 30 27 21 21 17 13 10 15 17 13 16 10 8 12 15 16 16 14 12 14
11 16 19 19 16 13 14 13 12 9 8 21 25 30 31 32 30 30 33 20 12 19 30 43 40 49 39 32 34 34 24 20 18 17 16 12 16 17 16 14 12 11 11 13 12 9 8 5 1
14 16 16 15 19 15 7 18 10 6 8 22 28 35 35 33 35 30 27 27 17 26 33 37 45 43 38 47 38 30 23 19 22 25 22 19 18 19 16 16 14 10 10 9 7 2 4 4 4
14 8 12 13 6 5 4 15 21 11 12 14 24 28 35 31 32 35 29 27 28 26 32 40 41 36 43 43 41 23 31 30 25 26 28 22 19 17 14 14 13 12 9 7 4 7 5 3 2
17 14 17 17 13 3 5 7 24 8 11 12 11 27 35 41 39 36 34 32 29 25 33 34 38 38 44 44 50 43 38 35 32 29 24 21 20 16 12 9 10 10 6 7 8 5 4 2 3
14 13 7 6 2 12 14 10 17 9 17 17 12 26 34 32 34 39 36 37 32 30 31 39 38 40 45 42 36 35 42 37 34 31 25 22 18 14 14 12 11 8 9 9 6 4 2 2 4
12 5 3 3 1 11 13 12 19 8 11 11 16 20 28 36 37 33 41 36 37 29 31 40 43 43 40 38 33 40 43 31 33 27 23 22 22 21 17 12 13 11 11 8 4 2 2 4 6
2 5 3 5 4 4 3 7 6 12 14 23 26 24 29 35 32 36 35 34 38 30 33 41 46 50 48 46 41 40 41 33 30 28 20 24 28 20 16 18 15 14 10 6 4 2 3 6 8
4 5 6 5 3 6 5 7 9 14 8 6 11 14 21 29 36 37 34 38 36 36 37 46 45 49 47 44 38 41 39 39 41 36 30 27 26 22 21 17 17 14 10 6 5 4 5 7 10
12 7 4 3 3 5 4 6 8 4 4 6 10 11 24 25 29 28 15 32 36 37 42 48 47 50 48 44 41 42 46 40 41 38 36 22 31 26 22 21 16 13 10 7 5 7 9 10 10
3 2 1 3 4 4 4 5 7 4 1 5 9 21 22 27 15 15 12 11 32 40 49 52 51 50 48 43 52 45 47 51 45 41 36 36 29 26 24 19 16 13 11 8 7 9 11 10 10
11 8 6 4 4 5 3 5 10 3 4 1 13 23 18 14 18 30 20 20 25 37 43 50 49 52 48 45 47 47 51 49 45 43 42 32 31 26 22 19 17 15 12 11 11 11 11 10 11
Wind_Direction
267 241 219 177 67 64 256 246 270 282 300 225 199 118 225 163 166 202 161 171 177 182 177 173 172 168 164 160 159 155 150 142 138 134 136 138 139 140 139 139 139 140 139 135 128 121 116 125 135
227 182 170 141 122 161 255 217 255 252 251 293 313 314 217 222 161 150 154 173 168 177 174 171 170 169 164 161 160 159 155 145 140 135 136 140 141 142 140 138 140 142 138 133 134 135 130 128 132
195 178 162 145 181 183 238 220 236 264 279 315 319 347 284 188 171 160 160 163 175 176 173 169 170 168 164 162 162 162 158 150 146 141 141 144 145 145 142 140 140 139 141 141 140 133 127 123 128
145 180 247 168 230 251 231 272 299 315 298 309 327 312 326 177 153 162 158 159 172 171 171 170 170 169 164 162 162 165 160 156 152 148 146 148 148 148 144 141 141 142 145 146 141 133 122 119 119
159 173 240 242 247 253 269 275 281 285 290 307 314 300 262 185 175 158 156 162 166 169 170 171 171 169 166 162 162 165 163 162 160 156 153 151 151 150 149 146 142 143 147 153 148 143 126 118 112
200 195 126 242 250 261 282 272 300 280 293 306 301 214 173 229 188 165 164 166 169 168 169 171 171 172 167 164 163 165 164 165 165 163 158 156 157 158 156 151 150 149 149 155 153 148 137 115 98
154 101 228 252 271 283 255 288 269 290 301 326 330 261 167 184 183 170 165 166 171 172 169 172 173 173 168 167 166 167 168 170 168 168 163 163 164 162 162 162 159 159 156 162 173 181 156 54 60
232 110 259 258 272 282 284 310 310 320 314 339 356 17 196 180 178 169 162 163 175 175 174 174 175 175 171 170 169 168 170 171 171 171 168 169 169 169 170 170 168 171 176 189 206 209 105 96 121
254 343 271 272 274 267 294 311 308 321 318 339 337 345 293 182 175 171 164 162 173 180 180 179 179 178 173 171 170 171 174 174 172 172 173 173 174 174 174 173 178 180 192 195 196 149 129 148 154
154 143 241 225 260 285 297 297 306 320 324 337 336 344 20 124 178 175 171 170 172 183 185 186 184 182 178 175 174 174 176 178 176 175 175 174 175 177 179 177 181 187 199 190 184 158 161 153 147
234 226 251 263 264 271 278 289 292 291 296 318 325 329 333 336 283 181 180 186 183 181 188 190 189 186 184 180 178 177 178 178 176 174 177 173 174 180 180 182 185 194 192 173 177 139 132 105 345
275 282 273 282 296 292 277 281 284 262 279 300 310 314 319 320 303 332 186 186 186 183 188 192 192 190 189 186 183 180 180 178 178 175 177 176 175 178 173 160 136 118 153 120 138 155 233 59 27
162 312 320 311 309 302 299 285 286 291 301 309 309 305 310 310 308 306 298 197 195 187 191 194 193 194 191 189 187 184 184 183 180 179 180 176 175 164 172 169 156 142 147 142 100 202 334 4 336
315 325 317 317 311 313 290 294 309 295 304 307 308 304 307 305 299 304 342 244 195 199 191 193 193 196 191 191 192 187 187 185 183 187 187 177 178 168 174 188 180 186 179 210 300 249 290 255 279
318 315 315 293 304 297 311 311 282 297 299 297 300 296 299 294 297 296 309 333 221 199 189 186 191 193 193 192 194 194 192 192 186 194 187 184 181 175 188 209 215 211 216 228 237 254 277 280 267
308 298 289 313 305 291 301 281 280 280 286 290 290 291 290 287 287 289 295 319 235 210 193 183 187 189 193 188 189 191 196 196 191 192 185 191 193 183 196 217 222 225 228 235 241 253 272 266 278
327 272 277 302 257 274 189 267 271 276 276 280 283 281 286 288 283 279 291 301 261 213 201 186 181 176 202 201 194 187 192 195 193 182 185 190 198 194 200 204 212 204 210 240 245 252 268 277 283
261 291 288 298 299 315 311 259 255 262 258 283 298 298 294 289 283 280 281 301 284 205 210 203 191 171 230 217 205 186 180 178 180 173 175 185 198 197 207 203 211 228 238 247 252 265 273 277 284
250 270 277 280 276 294 283 280 265 258 265 284 293 294 297 297 281 281 274 290 262 206 197 202 196 194 200 208 200 190 185 180 181 178 182 193 196 203 217 201 220 240 246 259 266 270 279 290 301
237 257 268 273 273 277 285 267 263 262 244 259 265 279 279 283 291 282 275 269 225 200 190 191 180 183 185 213 213 199 186 180 174 185 197 200 198 201 207 213 220 240 258 269 270 277 285 282 18
243 243 259 262 283 274 297 281 285 263 261 271 272 269 271 275 275 283 289 264 242 201 201 199 181 182 192 198 198 196 189 179 189 201 199 192 197 202 212 218 231 253 265 271 288 273 158 117 63
279 241 259 279 314 265 109 286 271 271 255 256 265 270 274 276 277 275 276 276 254 208 208 207 210 211 205 190 187 214 196 188 198 200 193 188 200 201 213 221 239 261 275 276 177 138 115 91 29
268 269 268 267 266 272 218 268 270 205 252 246 253 263 271 275 272 275 270 268 265 232 205 208 204 193 189 198 207 214 212 193 180 186 186 196 195 199 207 220 236 258 240 173 155 131 106 69 10
265 274 310 280 185 255 243 223 273 223 242 253 240 246 259 267 267 265 268 260 259 256 213 202 207 202 205 207 184 182 208 179 170 187 185 195 200 194 190 208 234 208 173 154 140 126 100 54 15
29 26 276 299 211 252 215 236 243 268 264 250 250 248 256 258 262 264 263 258 251 258 228 207 201 203 205 200 194 200 199 163 173 180 182 218 210 202 195 208 201 162 147 147 150 171 87 63 39
222 175 251 235 217 266 238 235 244 232 249 251 257 254 271 263 257 256 256 263 255 254 233 210 201 202 199 202 201 199 191 208 187 174 196 216 221 196 200 188 171 155 146 160 164 130 65 49 57
166 190 154 294 251 253 215 278 297 267 267 274 260 278 315 265 248 256 257 258 257 249 230 219 205 203 205 202 198 199 199 182 175 176 174 208 209 191 181 175 159 148 149 157 144 105 77 66 62
232 187 232 206 246 243 252 241 243 17 12 329 323 313 309 309 253 236 247 252 250 250 232 218 210 199 201 201 202 190 172 175 185 178 182 194 192 179 165 159 151 147 150 148 124 97 81 72 75
337 348 234 215 222 247 290 248 191 183 261 308 309 311 309 298 245 197 238 288 244 239 221 212 204 200 194 193 179 182 189 185 181 185 190 178 177 164 159 155 150 148 141 128 119 94 87 85 87
251 247 184 242 245 254 274 248 270 68 327 296 250 296 302 309 240 203 258 300 248 212 213 205 193 191 192 189 180 177 186 190 188 190 175 170 158 157 154 149 146 144 139 120 102 99 104 96 77